Regional Weather Roundup
Issued by NWS

Home | Current Version | Previous Version | Text Only | Print | Product List | Glossary Off
Versions: 1 2 3 4 5 6 7 8 9 10 11 12 13 14 15 16 17 18 19 20 21 22 23 24 25 26 27 28 29 30 31 32 33 34 35 36 37 38 39 40 41 42 43 44 45 46 47 48 49 50

000
ASUS45 KCYS 301310
RWRWY

WYOMING REGIONAL WEATHER ROUNDUP
NATIONAL WEATHER SERVICE CHEYENNE WY
700 AM MDT SAT APR 30 2016

NOTE:  "FAIR" INDICATES FEW OR NO CLOUDS BELOW 12,000 FEET
WITH NO SIGNIFICANT WEATHER AND/OR OBSTRUCTIONS TO VISIBILITY.

WYZ001-301400-
YELLOWSTONE NATIONAL PARK

CITY           SKY/WX    TMP DP  RH WIND       PRES   REMARKS
LK YELLOWSTONE   N/A     29  24  82 CALM      30.03R
W YELLOWSTONE  NOT AVBL

$$
WYZ002>013-054>058-071-098>099-301400-
NORTHERN WYOMING

CITY           SKY/WX    TMP DP  RH WIND       PRES   REMARKS
JACKSON        PTCLDY    34  32  93 N12       29.87F WCI  25
CODY           CLOUDY    37  36  93 N10       30.05R WCI  30
GREYBULL       CLOUDY    43  35  73 NW15      30.01R
WORLAND        CLOUDY    41  38  89 SW5       30.02R
SHERIDAN       CLOUDY    40  37  89 N3        30.10R
BUFFALO          N/A    N/A N/A N/A MISG      30.08R
GILLETTE       CLOUDY    37  35  92 NE8       30.07R WCI  31
HULETT         DRIZZLE   37  36  93 NE5       30.09R WCI  34
NEWCASTLE      CLOUDY    39  30  70 E10       30.02R WCI  32

$$
WYZ014>020-022>026-101>103-301400-
CENTRAL WYOMING

CITY           SKY/WX    TMP DP  RH WIND       PRES   REMARKS
BIG PINEY      FLURRIES  32  30  92 S7        29.99R WCI  26
PINEDALE       CLOUDY    32  32 100 CALM      29.99R
DUBOIS         MIX PCPN  30  28  93 CALM      30.01R
LANDER         LGT SNOW  33  31  92 NW7       30.01R VSB 1   WCI  27
RIVERTON       LGT RAIN  35  33  92 NW9       30.02R WCI  28
CASPER         LGT SNOW  32  30  92 N8        30.00R FOG     WCI  25
DOUGLAS        LGT SNOW  32  32 100 NW5       30.01R VSB 3/4 WCI  27

$$
WYZ021-027>030-104>119-301400-
SOUTHERN WYOMING

CITY           SKY/WX    TMP DP  RH WIND       PRES   REMARKS
EVANSTON       CLOUDY    32  27  81 NE7       29.95R WCI  26
KEMMERER       LGT SNOW  32  30  93 E5        29.98R WCI  27
FORT BRIDGER   FLURRIES  32  32 100 E8        30.00R WCI  25
ROCK SPRINGS   CLOUDY    32  28  85 NE14      29.97R WCI  22
DIXON          CLOUDY    33  27  80 N14       29.92R WCI  23
RAWLINS        CLOUDY    30  27  88 N9        29.95R FOG     WCI  22
SARATOGA       LGT SNOW  30  30 100 N10       29.94R WCI  21
LARAMIE        LGT SNOW  24  23  96 N13       29.90R FOG     WCI  12
CHEYENNE       LGT SNOW  28  26  92 N15G22    29.89R VSB 3/4 WCI  16
TORRINGTON     CLOUDY    34  32  92 N14       29.94R WCI  25
PINE BLUFFS    LGT SNOW  30  30 100 N15       29.90R WCI  19

$$



USA.gov is the U.S. government's official web portal to all federal, state and local government web resources and services.